Location: Chervonnoye
(48.6000°N, 34.4000°E)
Time: 08:05:16
(UTC+00:00)

KAITUO 1B - Pass Details

Date: 05 December 2021
Orbit: 486 x 507 km, 97.4° (Epoch: 18 January)

Event Time Altitude Azimuth Distance (km) Brightness Sun altitude
Rises 04:25:30 0° 12° (NNE) 2,632 ? -8.4°
Reaches altitude 10° 04:27:36 10° 11° (NNE) 1,739 ? -8.1°
Maximum altitude 04:31:21 82° 284° (WNW) 519 ? -7.6°
Drops below altitude 10° 04:35:03 10° 197° (SSW) 1,712 ? -7.0°
Sets 04:37:07 0° 197° (SSW) 2,588 ? -6.7°
